Retour au catalogue

THORAD AGENA D DEB

ActifLEO
NORAD 4449·DEBRIS·🇺🇸 United States

Lancé Sep 30, 1969 depuis Vandenberg Space Force Base

Loading…

Prochains Passages (prochaines 24 heures)

TLE

FraisSource: Space-Track

Époque: Sep 14, 2026, 09:10 UTC

1 04449U 69082EU  26257.38210957  .00000961  00000-0  28329-3 0  9996
2 04449  69.9697 253.2689 0053765 251.2218 108.3076 14.45776031953326

Suivez THORAD AGENA D DEB en temps réel avec AllMySat

Download on the App Store